Regional Weather Roundup
Issued by NWS Charleston, SC

Current Version | Previous Version | Text Only | Print | Product List | Glossary Off
Versions: 1 2 3 4 5 6 7 8 9 10 11 12 13 14 15 16 17 18 19 20 21 22 23 24 25 26 27 28 29 30 31 32 33 34 35 36 37 38 39 40 41 42 43 44 45 46 47 48 49 50

000
ASUS42 KCHS 241610
RWRCHS

REGIONAL WEATHER ROUNDUP
NATIONAL WEATHER SERVICE CHARLESTON SC
1200 PM EDT MON JUL 24 2017

NOTE: "FAIR" INDICATES FEW OR NO CLOUDS BELOW 12,000 FEET WITH NO
SIGNIFICANT WEATHER AND/OR OBSTRUCTIONS TO VISIBILITY.

NOT ALL STATIONS ARE QUALITY CONTROLLED. USE DATA WITH CAUTION...
ESPECIALLY DEWPOINT OBSERVATIONS.

SCZ027-030-031-034>040-042>050-241700-
...SOUTHEAST SOUTH CAROLINA...

CITY           SKY/WX    TMP DP  RH WIND       PRES   REMARKS
N CHARLESTON   CLOUDY    78  74  87 W14       29.98F
WATERFRONT PRK   N/A     78  75  90 W7        29.97F
JOHNS ISLAND   NOT AVBL
PINOPOLIS        N/A     79  73  83 SW9       29.92
MONCKS CORNER  FAIR      75  72  88 W6        29.98F
SUMMERVILLE    FAIR      75  73  94 S3        30.00S
BEAUFORT MCAS  PTSUNNY   79  79 100 CALM      30.00F
BEAUFORT ARPT  FAIR      79  77  94 CALM      30.00F
HILTON HEAD IS CLOUDY    81  77  89 SW6       30.01F
WALTERBORO     FAIR      75  73  94 S5        30.00F
ALLENDALE      NOT AVBL

...SOUTHERN MIDLANDS AND PEE DEE...

CITY           SKY/WX    TMP DP  RH WIND       PRES   REMARKS
GEORGETOWN     FAIR      81  79  94 SW8       29.99F
KINGSTREE      CLOUDY    79  73  83 S8        29.98S
ORANGEBURG     CLOUDY    82  76  81 S9        29.98F
BARNWELL       FAIR      88  79  74 SW8       29.98S HX 102
AIKEN          FAIR      86  75  70 S6        30.01S HX  95
MANNING        CLOUDY    81  77  89 SW9G23    29.98F
COLUMBIA       CLOUDY    84  75  74 SW6       29.96F HX  92
SUMTER         CLOUDY    80  75  84 SW5       29.96S
FLORENCE       CLOUDY    80  77  90 W8        29.98S
MYRTLE BEACH   PTSUNNY   84  75  74 SW12      29.98R HX  92
N MYRTLE BEACH PTSUNNY   85  75  72 W10       29.96S HX  93

$$

GAZ063-065-086>088-099>101-113>116-118-119-134>141-150-241700-
...SOUTHEAST GEORGIA...

CITY           SKY/WX    TMP DP  RH WIND       PRES   REMARKS
SAVANNAH ARPT  PTSUNNY   86  74  67 SW8       30.00F HX  94
HUNTER AAF     FAIR      87  75  68 SW8       29.97F HX  97
FORT STEWART   PTSUNNY   87  73  64 SW7       29.98F HX  94
STATESBORO     FAIR      84  78  81 SW8       30.00R HX  94
SYLVANIA       PTSUNNY   83  80  90 W7        30.00S HX  97
CLAXTON        FAIR      87  77  72 S3        30.00S HX  98

...CSRA...CENTRAL AND FAR SOUTHEAST GEORGIA...

CITY           SKY/WX    TMP DP  RH WIND       PRES   REMARKS
THOMSON        FAIR      89  75  64 NW7       30.02S HX  99
AUGUSTA-BUSH   PTSUNNY   89  78  70 W3        29.96F HX 103
AUGUSTA-DANIEL FAIR      88  73  61 SW6       29.98S HX  95
SWAINSBORO     PTSUNNY   86  77  74 SW8       30.00F HX  97
VIDALIA        FAIR      88  75  66 SW6       30.01S HX  97
EASTMAN        PTSUNNY   89  66  46 SW5       30.02S HX  91
HAZLEHURST     PTSUNNY   88  74  64 W6        30.00S HX  97
ALMA           FAIR      87  73  62 VRB6      30.01S HX  94
WAYCROSS       PTSUNNY   90  82  75 W13       30.02R HX 110
JESUP          NOT AVBL
BAXLEY         PTSUNNY   88  77  70 W5        30.01S HX 100
BRUNSWICK      FAIR      90  77  66 SW12      30.03S HX 102
SAINT SIMONS   FAIR      88  75  65 SW8       30.02S HX  97

$$

SCZ027-028-034-036>038-045-046-048>050-GAZ119-141-241700-
...LAKE AND SUPPLEMENTAL COASTAL OBSERVATIONS...

STATION/POSITION TIME  TEMP    WIND        PRES    WAVE   SWELL
                       AIR SEA DIR/SP/G            HT/PER HT/PER/DIR
                 (UTC) (F)     (DEG/KT/KT) (MB)    (FT/S) (FT/S/D)
WINYAH BAY       NOT AVBL
LAKE MURRAY      NOT AVBL
ACE BASIN NERRS  NOT AVBL
FORT PULASKI     NOT AVBL
SAPELO ISLAND    NOT AVBL

$$

ANZ835-935-AMZ111-154-330-350-352-354-370-450-454-472-241700-
...C-MAN AND BUOY OBSERVATIONS...

STATION/POSITION TIME  TEMP    WIND        PRES    WAVE   SWELL
                       AIR SEA DIR/SP/G            HT/PER HT/PER/DIR
                 (UTC) (F)     (DEG/KT/KT) (MB)    (FT/S) (FT/S/D)
BUOY 41004       NOT AVBL
BUOY 41008       NOT AVBL
FOLLY BEACH CMAN NOT AVBL
CAPERS NEARSHORE NOT AVBL
FRIPP NEARSHORE  NOT AVBL


STATION/POSITION TIME  TEMP    WIND        PRES    WAVE   SWELL
                       AIR SEA DIR/SP/G            HT/PER HT/PER/DIR
                 (UTC) (F)     (DEG/KT/KT) (MB)    (FT/S) (FT/S/D)
5E ST. MARYS GA  NOT AVBL
FRYING PAN BUOY  NOT AVBL
BUOY 41025       NOT AVBL
CAPE LOOKOUT NC  NOT AVBL
BUOY 41002       NOT AVBL
BUOY 41010       NOT AVBL
ST AUGUSTINE FL  NOT AVBL


$$




USA.gov is the U.S. government's official web portal to all federal, state and local government web resources and services.